This is the latest recevied weather packets stored in our database for station/object W2GUX. If no packets are shown the sender has not sent any weather packets the latest 1 day(s).
| Time | Temp. | Humidity | Pressure | Rain* | Wind** | Luminosity | Snow |
|---|---|---|---|---|---|---|---|
| 1778043604 | 21.11° C | 54% | 1006.7 hPa | 0 mm | - | - | - |
| 1778042704 | 21.11° C | 53% | 1006.6 hPa | 0 mm | - | - | - |
| 1778042404 | 21.11° C | 53% | 1006.7 hPa | 0 mm | - | - | - |
| 1778041804 | 21.11° C | 53% | 1006.6 hPa | 0 mm | - | - | - |
| 1778040904 | 21.11° C | 52% | 1006.5 hPa | 0 mm | - | - | - |
| 1778040604 | 21.11° C | 52% | 1006.6 hPa | 0 mm | - | - | - |
| 1778038804 | 21.67° C | 51% | 1006.6 hPa | 0 mm | - | - | - |
| 1778037304 | 21.67° C | 50% | 1006.5 hPa | 0 mm | - | - | - |
| 1778036704 | 22.22° C | 49% | 1006.5 hPa | 0 mm | - | - | - |
| 1778036104 | 22.22° C | 48% | 1006.4 hPa | 0 mm | - | - | - |
| 1778035504 | 22.78° C | 47% | 1006.3 hPa | 0 mm | - | - | - |
| 1778034904 | 22.78° C | 44% | 1006.3 hPa | 0 mm | - | - | - |
| 1778034304 | 23.33° C | 42% | 1006.3 hPa | 0 mm | - | - | - |
| 1778033704 | 23.33° C | 40% | 1006.2 hPa | 0 mm | - | - | - |
| 1778031604 | 24.44° C | 35% | 1005.9 hPa | 0 mm | - | - | - |
| 1778031004 | 24.44° C | 35% | 1005.7 hPa | 0 mm | - | - | - |
| 1778030404 | 24.44° C | 34% | 1005.6 hPa | 0 mm | - | - | - |
| 1778027704 | 25.56° C | 29% | 1005.1 hPa | 0 mm | - | - | - |
| 1778026804 | 25.56° C | 27% | 1004.9 hPa | 0 mm | - | - | - |
| 1778026204 | 26.11° C | 27% | 1004.9 hPa | 0 mm | - | - | - |
* Rain latest hour (hover to see other rain measurements)
** Current wind speed in m/s (hover to see current wind gust speed)